Regional Weather Roundup
Issued by NWS Goodland, KS

Home | Current Version | Previous Version | Text Only | Print | Product List | Glossary Off
Versions: 1 2 3 4 5 6 7 8 9 10 11 12 13 14 15 16 17 18 19 20 21 22 23 24 25 26 27 28 29 30 31 32 33 34 35 36 37 38 39 40 41 42 43 44 45 46 47 48 49 50

000
ASUS43 KGLD 190459
RWRGLD

GOODLAND FORECAST AREA HOURLY WEATHER ROUNDUP
NATIONAL WEATHER SERVICE GOODLAND KS
1000 PM MST SAT NOV 18 2017

...OFFICIAL OBSERVATIONS...

CITY           SKY/WX    TMP DP  RH WIND       PRES   REMARKS
GOODLAND KS    CLEAR     25  15  66 SW9       30.27S
HILL CITY KS   CLEAR     29  21  72 W9        30.28F
IMPERIAL NEB   CLEAR     29  16  58 W7        30.26R
MCCOOK NEB     CLEAR     28  22  78 W7        30.26R
AKRON CO       CLOUDY    27  14  58 SE8       30.24S
BURLINGTON CO  CLEAR     21  12  68 W5        30.28R
LIMON CO       CLOUDY    19  13  77 SE6       30.25S
$$

...UNOFFICIAL OBSERVATIONS...

CITY           SKY/WX    TMP DP  RH WIND       PRES   REMARKS
LENORA KS        N/A     32  32 100 CALM        N/A
NORTON KS      CLEAR     28  18  64 SW7       30.26
SHARON SPRINGS   N/A     23  13  64 W8          N/A
TRENTON NEB      N/A     28  32 100 CALM        N/A
KIT CARSON CO    N/A     22  11  62 CALM        N/A
YUMA CO        FAIR      21  16  79 W3        30.25F
$$




USA.gov is the U.S. government's official web portal to all federal, state and local government web resources and services.